ALOS-2

Last updated on Sun Aug 09 2026 00:02:10 GMT+0000 (Coordinated Universal Time)

1 39766U 14029A 26220.62226637 .00000644 00000+0 93054-4 0 9991 2 39766 97.9220 317.0367 0001543 93.4377 266.7011 14.79467803659333
UTC large
Height (km)
Speed (km/s)
/
Latitude / Longitude
Inclination (degrees)
Orbital Period (minutes)
Azimuth
Elevation
Range (km)
Doppler Factor

Next 0 passes for location: London (51.5072 / 0.1276)

No passes found over London.
ALOS-2